Terminal Aerodrome Forecast
Issued by NWS

Home | Current Version | Previous Version | Text Only | Print | Product List | Glossary On
Versions: 1 2 3 4 5 6 7 8 9 10 11 12 13 14
000
FTUS42 KTBW 210846 AAB
TAFRSW
TAF AMD
KRSW 210846Z 2109/2206 VRB03KT 1SM BR BKN010
      TEMPO 2109/2112 1/4SM FG BKN004
     FM211400 16005KT P6SM FEW010 SCT250
     FM211600 18010KT P6SM FEW020 SCT250
     FM211800 20013G19KT P6SM FEW030 SCT250
     FM220000 20012KT P6SM BKN250=

USA.gov is the U.S. government's official web portal to all federal, state and local government web resources and services.